OBJECT R, 57181

Orbit data source: Space-Track

You're viewing an Uncataloged Satellite

Recently launched and/or uncataloged satellites may have evolving metadata. Metadata may include but not limited to: Owner, Maufacturer, Bus, Motor, and Mission.

OBJECT R, 57181 is a satellite in SSO that was launched on Tue, 27 Jun 2023 UTC via a SOYUZ-2-1B launch vehicle from the Vostochny Cosmodrome (VOSTO). Unknown objects in Earth's orbit typically refer to objects detected orbiting the Earth but have not yet been identified or cataloged. These objects could be anything from previously untracked satellites, spent rocket stages, debris from satellite collisions, or even natural meteoroids temporarily captured by Earth's gravity.

Loading next visibility...
Identifier
57181, 2023-091R
Orbit
SSO
Country
Flag of TBDTBD
Related business
None
Manufacturer
Unknown
Mission
Operational Amateur Communications
Bus & Motor
Unknown
Mass
Unknown
Launch date (UTC)
2023-06-27 (3 years ago)
Launch vehicle
SOYUZ-2-1B
Launch site
Vostochny Cosmodrome (VOSTO)
Object type
Unknown
Shape & HBR
Box, 0.2 m
Radar Cross Section
0.035 m², Medium (>0.1 m² and < 1m²)

Expand to show TLE details & history
Last TLE update: 13 hours ago

TLE from 13 hours ago
0 OBJECT R
1 57181U 23091R   26207.60214902  .00002930  00000-0  16144-3 0  9991
2 57181  97.5046 261.0291 0014942   8.0382 352.1087 15.14710178169655
Epoch: 2026-07-26T14:27Z
TLE epoch observation values (Epoch: 2026-07-26T14:27:05.675Z)
Latitude
0.00003°
Longitude
99.95773°
Altitude
514.725 km
Speed
7.612 km/s
True Right ascension
17h 24m 06s
True Declination
0° 00' 00"
Sunlit
Object was in full shadow at epoch
Visualization orbit readout
Latitude
Unknown
Longitude
Unknown
Altitude
Unknown
Speed
Unknown
Apparent Right ascension
Unknown
Apparent Declination
Unknown
Sunlit
N/A
Visualization observer readout
Local Sidereal Time
17:04:31
Azimuth
Unknown
Elevation
Unknown
Doppler factor
Unknown
Orbital elements
Apogee altitude
529.141 km
Perigee altitude
508.53 km
Semi-major axis
6,896.973 km
Eccentricity
0.00149
Inclination
97.5046°
RAAN
261.0291°
Arg. of periapsis
8.0382°
True anomaly
352.08515°
Mean anomaly
352.1087°
Eccentric anomaly
352.09693°
Mean motion
3.78927 °/min
Orbital period
95.01 mins
BSTAR
0.00016144
Loading maneuver chart data...
Computing Atmospheric mass density...
Loading historical data...
Loading historical data...
Loading historical data...
Loading historical data...
Loading historical data...
Loading historical data...
Loading historical data...

Documentation

Showing up to 5 results
|